Location: Parc National du Mont-Orford
(45.3122°N, 72.2403°W)
Time: 22:35:57
(UTC-05:00)

Envisat - Pass Details

Date: 23 January 2018
Orbit: 764 x 766 km, 98.2° (Epoch: 24 February)

Event Time Altitude Azimuth Distance (km) Brightness Sun altitude
Exits shadow 18:36:30 36° 56° (NE) 1,206 3.5 -19.7°
Drops below altitude 10° 18:40:42 10° 2° (N) 2,313 5.4 -20.4°
Sets 18:43:09 0° 354° (N) 3,244 6.2 -20.9°
